TimePST,TemperatureF,Dew PointF,Humidity,Sea Level PressureIn,VisibilityMPH,Wind Direction,Wind SpeedMPH,Gust SpeedMPH,PrecipitationIn,Events,Conditions,WindDirDegrees,DateUTC
12:53 AM,46.0,28.9,51,30.16,10.0,WNW,4.6,-,N/A,,Clear,290,2013-12-18 08:53:00
1:53 AM,45.0,28.9,53,30.16,10.0,Calm,Calm,-,N/A,,Clear,0,2013-12-18 09:53:00
2:53 AM,45.0,30.0,56,30.15,10.0,NW,3.5,-,N/A,,Clear,310,2013-12-18 10:53:00
3:53 AM,44.1,28.9,55,30.14,10.0,NNW,3.5,-,N/A,,Clear,340,2013-12-18 11:53:00
4:53 AM,45.0,30.0,56,30.12,10.0,North,5.8,-,N/A,,Clear,360,2013-12-18 12:53:00
5:53 AM,46.0,28.9,51,30.12,10.0,WNW,6.9,-,N/A,,Clear,300,2013-12-18 13:53:00
6:53 AM,46.9,28.9,50,30.13,10.0,WNW,3.5,-,N/A,,Clear,290,2013-12-18 14:53:00
7:53 AM,46.9,30.9,54,30.15,10.0,Calm,Calm,-,N/A,,Clear,0,2013-12-18 15:53:00
8:53 AM,50.0,32.0,50,30.14,10.0,North,3.5,-,N/A,,Clear,360,2013-12-18 16:53:00
9:53 AM,51.1,30.0,44,30.13,10.0,NE,3.5,-,N/A,,Partly Cloudy,40,2013-12-18 17:53:00
10:53 AM,54.0,27.0,35,30.08,10.0,North,10.4,-,N/A,,Clear,360,2013-12-18 18:53:00
11:53 AM,57.0,28.0,33,30.06,10.0,SSE,8.1,-,N/A,,Clear,160,2013-12-18 19:53:00
12:53 PM,57.9,28.0,32,30.01,10.0,SE,5.8,-,N/A,,Clear,140,2013-12-18 20:53:00
1:53 PM,57.0,26.1,30,29.97,10.0,ENE,5.8,-,N/A,,Scattered Clouds,70,2013-12-18 21:53:00
2:53 PM,57.0,28.0,33,29.95,10.0,South,3.5,-,N/A,,Clear,170,2013-12-18 22:53:00
3:53 PM,55.9,27.0,33,29.93,10.0,South,4.6,-,N/A,,Clear,190,2013-12-18 23:53:00
4:53 PM,55.9,26.1,32,29.90,10.0,WNW,3.5,-,N/A,,Partly Cloudy,300,2013-12-19 00:53:00
5:53 PM,54.0,27.0,35,29.89,10.0,Calm,Calm,-,N/A,,Clear,0,2013-12-19 01:53:00
6:53 PM,52.0,28.9,41,29.87,10.0,East,4.6,-,N/A,,Clear,90,2013-12-19 02:53:00
7:53 PM,48.9,28.9,46,29.85,10.0,Calm,Calm,-,N/A,,Clear,0,2013-12-19 03:53:00
8:53 PM,48.9,30.0,48,29.81,10.0,Calm,Calm,-,N/A,,Clear,0,2013-12-19 04:53:00
9:53 PM,48.9,28.9,46,29.79,10.0,Calm,Calm,-,N/A,,Clear,0,2013-12-19 05:53:00
10:53 PM,45.0,30.0,56,29.75,10.0,North,4.6,-,N/A,,Clear,360,2013-12-19 06:53:00
11:53 PM,43.0,30.0,60,29.73,10.0,Calm,Calm,-,N/A,,Clear,0,2013-12-19 07:53:00